Location: Trois-Rivi�res
(46.3500°N, 72.5500°W)
Time: 19:32:36
(UTC-05:00)

Envisat - Pass Details

Date: 14 October 2017
Orbit: 764 x 766 km, 98.2° (Epoch: 09 December)

Event Time Altitude Azimuth Distance (km) Brightness Sun altitude
Exits shadow 22:00:12 16° 274° (W) 1,913 5.5 -39.7°
Drops below altitude 10° 22:03:05 10° 309° (NW) 2,313 6.2 -40.1°
Sets 22:06:18 0° 331° (NNW) 3,246 7.0 -40.5°
